This is the latest recevied weather packets stored in our database for station/object AD8AK. If no packets are shown the sender has not sent any weather packets the latest 10 day(s).
| Time | Temp. | Humidity | Pressure | Rain* | Wind** | Luminosity | Snow |
|---|---|---|---|---|---|---|---|
| 1777729019 | 6.11° C | 72% | 1018 hPa | 0 mm | - | - | - |
| 1777728716 | 5.56° C | 73% | 1017.9 hPa | 0 mm | - | - | - |
| 1777728413 | 6.11° C | 72% | 1017.9 hPa | 0 mm | - | - | - |
| 1777728110 | 5.56° C | 73% | 1018 hPa | 0 mm | - | - | - |
| 1777727807 | 6.67° C | 71% | 1017.8 hPa | 0 mm | - | - | - |
| 1777727504 | 6.11° C | 73% | 1017.8 hPa | 0 mm | - | - | - |
| 1777727202 | 5.56° C | 73% | 1017.9 hPa | 0 mm | - | - | - |
| 1777726899 | 5.56° C | 73% | 1017.6 hPa | 0 mm | - | - | - |
| 1777726595 | 5° C | 75% | 1017.9 hPa | 0 mm | - | - | - |
| 1777726293 | 4.44° C | 75% | 1017.9 hPa | 0 mm | - | - | - |
| 1777725989 | 4.44° C | 75% | 1017.8 hPa | 0 mm | - | - | - |
| 1777725686 | 4.44° C | 75% | 1017.4 hPa | 0 mm | - | - | - |
| 1777725385 | 4.44° C | 76% | 1017.9 hPa | 0 mm | - | - | - |
| 1777725081 | 3.89° C | 76% | 1017.8 hPa | 0 mm | - | - | - |
| 1777724778 | 3.89° C | 75% | 1017.5 hPa | 0 mm | - | - | - |
| 1777724475 | 3.89° C | 76% | 1017.5 hPa | 0 mm | - | - | - |
| 1777724173 | 3.33° C | 75% | 1017.5 hPa | 0 mm | - | - | - |
| 1777723870 | 3.33° C | 76% | 1017.5 hPa | 0 mm | - | - | - |
| 1777723566 | 3.33° C | 76% | 1017.5 hPa | 0 mm | - | - | - |
| 1777723263 | 2.78° C | 78% | 1017.6 hPa | 0 mm | - | - | - |
| 1777722962 | 2.78° C | 78% | 1017.5 hPa | 0 mm | - | - | - |
| 1777722662 | 2.22° C | 79% | 1017.5 hPa | 0 mm | - | - | - |
| 1777722359 | 2.22° C | 80% | 1017.6 hPa | 0 mm | - | - | - |
| 1777722055 | 1.67° C | 81% | 1017.5 hPa | 0 mm | - | - | - |
| 1777721753 | 1.67° C | 82% | 1017.4 hPa | 0 mm | - | - | - |
* Rain latest hour (hover to see other rain measurements)
** Current wind speed in m/s (hover to see current wind gust speed)